www.pogodaiklimat.ru

Погода и климат >> Архив погоды >> Россия >> Ростовская область >> Константиновск


ПОГОДА в Константиновске

  • Прогноз погоды в Константиновске
  • Монитор погоды в Константиновске

АРХИВ ПОГОДЫ в Константиновске

Время (UTC), дата Ветер
(напр.,м/с)
 
Видим.   Явления Облачность Т
(С)
Тd
(С)
f
(%)
Тe
(С)
Тes
(С)
Комфортность P
(гПа)
Po
(гПа)
Тmin
(С)
Tmax
(С)
R
(мм)
R24
(мм)
S
(см)
09 12.08 С 2 10 км 3/3 600 м
[Cu hum]
+28.0 +8.2 29 +28 +39 жарко 1016.4 1009.3
12 12.08 СЗ 5 10 км 6/6 600 м
[Cu hum]
+28.4 +7.8 27 +28 +30 жарко 1016.3 1009.2
15 12.08 С 1 10 км ясно +27.2 +7.4 29 +27 +28 жарко 1016.8 1009.7 +29.7
18 12.08 СВ 2 10 км ясно +20.4 +7.0 42 +22 +22 комфорт 1018.4 1011.1
21 12.08 СВ 1 10 км ясно +18.2 +4.4 40 +19 +19 1019.0 1011.6
00 13.08 С 1 10 км ясно +12.8 +6.5 65 +13 +13 1019.4 1011.9
03 13.08 С 1 10 км ясно +12.5 +7.7 73 +13 +13 1020.2 1012.7 +11.2
06 13.08 ЮВ 1 10 км ясно +23.7 +8.1 37 +24 +34 комфорт 1020.0 1012.8
09 13.08 С 1 10 км ясно +27.3 +6.3 26 +27 +44 жарко 1019.2 1012.1
12 13.08 З 1 10 км ясно +28.7 +6.1 24 +28 +39 жарко 1017.7 1010.6
15 13.08 С 1 10 км ясно +29.2 +7.1 25 +28 +30 жарко 1016.9 1009.8 +29.8
18 13.08 СВ 1 10 км ясно +19.8 +9.9 53 +22 +22 комфорт 1017.5 1010.2
21 13.08 СВ 1 10 км ясно +21.2 +8.9 45 +22 +22 комфорт 1017.6 1010.3
00 14.08 В 1 10 км ясно +17.5 +9.2 58 +19 +19 1017.3 1009.9
03 14.08 В 1 10 км ясно +16.7 +9.9 64 +18 +18 1017.4 1010.0 +16.4
06 14.08 ЮВ 1 10 км ясно +25.7 +8.2 33 +26 +35 жарко 1017.6 1010.5
09 14.08 В 3 10 км ясно +28.7 +8.5 28 +28 +41 жарко 1016.5 1009.4
12 14.08 В 3 10 км ясно +30.6 +9.0 26 +30 +38 жарко 1014.8 1007.7
15 14.08 В 3 10 км ясно +29.6 +9.2 28 +29 +30 жарко 1014.1 1006.8 +31.1
18 14.08 В 2 10 км ясно +23.8 +11.0 45 +25 +25 комфорт 1014.0 1006.7
21 14.08 В 3 10 км ясно +21.6 +12.1 55 +24 +24 комфорт 1013.4 1006.2
00 15.08 В 2 10 км ясно +21.0 +7.3 41 +23 +23 комфорт 1013.0 1005.8
03 15.08 В 2 10 км ясно +20.0 +5.7 39 +21 +22 комфорт 1013.2 1005.9 +19.5
06 15.08 В 3 10 км ясно +25.4 +7.5 32 +25 +32 комфорт 1012.8 1005.7
09 15.08 ЮВ 4-11
{10}
10 км ясно +32.3 +7.4 21 +31 +41 жарко 1011.7 1004.7
12 15.08 ЮВ 5-12
{13}
10 км ясно +34.1 +7.9 20 +32 +38 жарко 1009.5 1002.6
15 15.08 ЮВ 3
{12}
10 км ясно +33.0 +7.7 21 +31 +32 жарко 1008.7 1001.8 +34.5
18 15.08 В 2 10 км ясно +26.5 +7.7 30 +26 +26 жарко 1009.6 1002.5
21 15.08 В 2 10 км ясно +22.5 +8.7 41 +24 +24 комфорт 1009.8 1002.6
00 16.08 В 2 10 км ясно +20.2 +8.0 45 +22 +22 комфорт 1009.9 1002.7
03 16.08 В 3 10 км 6/0
[Ac trans]
+17.7 +9.0 57 +18 +18 1009.8 1002.5 +17.6
06 16.08 ЮВ 3 10 км 8/0
[Ac trans Ci sp]
+21.6 +14.3 63 +25 +29 комфорт 1009.4 1002.2
09 16.08 ЮВ 4
{13}
10 км 10/0
[Ac As]
+26.0 +16.6 56 +30 +33 душно 1007.8 1000.5
12 16.08 ЮЗ 2 10 км 10/4 600 м
[Cu med, cong Ac As]
+28.7 +17.4 50 +33 +34 очень
душно
1007.4 1000.4
15 16.08 СВ 1 10 км 10/5 600 м
[Cu Sc Ac As]
+27.8 +19.2 60 +33 +34 очень
душно
1006.9 999.9 +29.7
18 16.08 В 3 10 км 10/6 600 м
[Cu Sc Ac As]
+26.9 +16.7 54 +31 +31 душно 1005.5 998.5
21 16.08 ЮВ 1 10 км 10/0
[Ac trans Ci sp]
+24.6 +15.7 58 +28 +28 душно 1008.1 1000.8
00 17.08 В 2 10 км 10/0
[Ac trans Ci sp]
+21.9 +15.0 65 +25 +25 комфорт 1007.2 1000.0
03 17.08 В 2 10 км 10/6 600 м
[Cu Sc Ac As]
+22.2 +11.3 50 +24 +24 комфорт 1007.7 1000.6 +21.8
06 17.08 В 1 10 км 10/6 600 м
[Cu Sc Ac As]
+22.5 +12.6 54 +25 +26 комфорт 1007.7 1000.6 +21.4
09 17.08 ЮЗ 1 10 км 10/10 600 м
[Cu Sc]
+25.7 +12.8 45 +28 +28 жарко 1008.3 1001.2
12 17.08 ЮЗ 2 10 км 4/3 600 м
[Cu hum Ci sp]
+29.2 +15.7 44 +32 +39 душно 1008.0 1001.0
15 17.08 З 2 10 км 4/3 600 м
[Cu hum Ci sp]
+28.5 +16.0 47 +32 +32 душно 1008.0 1001.0 +29.4
18 17.08 штиль 0 10 км ясно +21.6 +16.6 73 +25 +25 комфорт 1009.2 1002.1
21 17.08 С 1 10 км ясно +19.5 +16.2 81 +23 +23 комфорт 1009.6 1002.4
00 18.08 ЮВ 1 10 км ясно +18.8 +15.6 82 +21 +21 комфорт 1009.5 1002.3
03 18.08 В 1 10 км 6/3 600 м
[Cu Sc Ci sp]
+20.4 +16.1 76 +24 +25 комфорт 1009.7 1002.5 +17.7
06 18.08 В 1 10 км 8/3 600 м
[Cu Sc Ac trans]
+24.7 +17.0 62 +28 +32 душно 1010.1 1003.0
09 18.08 штиль 0 10 км слаб. ливневой дождь 10/10 600 м
[Cb cap]
+21.9 +19.4 86 +27 +27 душно 1010.5 1003.3
12 18.08 В 1 10 км {ливн. осадки} 8/3 600 м
[Cu Sc Ci sp]
+26.5 +18.6 62 +31 +38 душно 1010.3 1003.3
15 18.08 СВ 1 10 км 4/0
[Ci sp]
+28.5 +17.7 52 +33 +34 очень
душно
1010.5 1003.5 +29.0 1
18 18.08 С 1 10 км 4/3 600 м
[Cu Sc Ac trans]
+22.8 +17.8 73 +28 +28 душно 1011.1 1004.0
21 18.08 С 1 10 км 6/0
[Ac trans]
+21.0 +17.3 79 +26 +26 душно 1011.8 1004.6
00 19.08 С 1 10 км 4/0
[Ac trans]
+20.7 +17.6 82 +26 +26 душно 1012.3 1005.1
03 19.08 СВ 2 4000 м дымка 6/0
[Ci sp]
+20.5 +18.0 86 +25 +25 комфорт 1012.8 1005.6 +19.8
06 19.08 С 2 10 км 8/8 600 м
[Cu Sc]
+25.2 +18.8 68 +30 +32 душно 1013.9 1006.8

 

Местоположение метеостанции Константиновск (Ростовская область, Россия): широта 47.58 долгота 41.10 высота над уровнем моря 62 м.

В архиве по умолчанию представлена погода в Константиновске за последнюю неделю. Архивные данные за месяц целиком и за предыдущие месяцы, начиная с января 2011 года, Вы можете получить, выбрав интересующий диапазон дат из раскрывающегося списка и нажав кнопку "Ввод!".


*Определитесь, кто Вы:
робот инопланетянин человек

Внимание! Время в таблицах - всемирное. Для получения местного времени необходимо прибавить поправку, которая равна 3 ч.

Смотрите также архив погоды в соседних городах и на ближайших метеорологических станциях:

Погода в Семикаракорске (Ростовская область, Россия) (21 км)
Погода в Шахтах (Ростовская область, Россия) (64 км)
Погода в Белой Калитве (Ростовская область, Россия) (75 км)
Погода в Цимлянске (Ростовская область, Россия) (77 км)
Погода в Аэропорту Платов (Ростовская область, Россия) (89 км)
Погода в Каменск-Шахтинском (Ростовская область, Россия) (100 км)
Погода в Зерноград (Ростовская область, Россия) (100 км)
Погода в Ростове-на-Дону (Ростовская область, Россия) (102 км)
Погода в Морозовске (Ростовская область, Россия) (103 км)
Погода в Зимовниках (Ростовская область, Россия) (114 км)

Пояснения к столбцам:

Ветер - указаны скорость ветра в м/с - средняя за 10 мин, порывы в срок и между сроками (в фигурных скобках) и направление, откуда дует ветер: С - северный, СВ - северо-восточный, В - восточный, ЮВ - юго-восточный, Ю - южный, ЮЗ - юго-западный, З - западный, СЗ - северо-западный.
Видимость - горизонтальная дальность видимости в метрах или километрах. При видимости от 1 до 10 км при отсутствии осадков обычно наблюдается дымка, при ухудшении видимости до 1 км и менее - туман. В сухую погоду видимость может ухудшаться дымом, пылью или мглою.
Явления - указаны атмосферные явления, наблюдавшиеся в срок или в последний час перед сроком; фигурными скобками обозначены явления, наблюдавшиеся между сроками (за 1-3 часа до срока); квадратными скобками обозначены град или гололедные отложения с указанием их диаметра в мм.
Облачность - указаны через наклонную черту общая и нижняя облачность в баллах и высота нижней границы облаков в метрах; квадратными скобками обозначены формы облаков: Ci - перистые, Cs - перисто-слоистые, Cc - перисто-кучевые, Ac - высококучевые, As - высокослоистые, Sc - слоисто-кучевые, Ns - слоисто-дождевые, Cu - кучевые, Cb - кучево-дождевые. Подробнее классификацию облаков см. в Атласе облаков (PDF).
T - Температура воздуха - температура, измеренная на высоте 2 м над землей.
Td - Температура точки росы - температура, при понижении до которой содержащийся в воздухе водяной пар достигнет насыщения.
f - Относительная влажность воздуха - влажноcть воздуха, измеренная на высоте 2 м над землей.
Te - Эффективная температура - температура, которую ощущает одетый по сезону человек в тени. Характеристика душности погоды. При расчете учитывается влияние влажности воздуха и скорости ветра на теплоощущения человека.
Tes - Эффективная температура на солнце - температура, которую ощущает человек, с поправкой на солнечный нагрев. Характеристика знойности погоды. Зависит от высоты солнца над горизонтом, облачности и скорости ветра. Ночью, в пасмурную погоду, а также при ветре 12 м/с и более поправка равна нулю.
P - Атмосферное давление - приведенное к уровню моря атмосферное давление.
Po - Атмосферное давление - измеренное на уровне метеостанции атмосферное давление.
Tmin - Минимальная температура - минимум температуры воздуха на высоте 2 м над землей.
Tmax - Максимальная температура - максимум температуры воздуха на высоте 2 м над землей.
R - Количество осадков - Количество выпавших осадков за период времени, мм. При наведении курсора мыши на число - период времени, за который выпало указанное количество осадков.
R24 - Количество осадков - Количество выпавших осадков за 24 часа, мм.
S - Снежный покров - Высота снежного покрова, см. При наведении курсора мыши на число - состояние снежного покрова и степень покрытия местности в баллах.